Adela, Philippines

7:18 PM PHT on December 10, 2016 (GMT +0800)
Mactan-Cebu International

Weather History for RPVM - April, 2014

Change the Weather History Date:

Sunday, April 27, 2014

  Actual Average Record
Temperature  
Mean Temperature 84 °F -  
Max Temperature 91 °F 88 °F 92 °F (2012)
Min Temperature 78 °F 77 °F 76 °F (2015)
Cooling Degree Days 20    
Growing Degree Days 34 (Base 50)    
Moisture  
Dew Point 76 °F    
Average Humidity 77    
Maximum Humidity 89    
Minimum Humidity 62    
Precipitation  
Precipitation 0.00 in - - ()
Sea Level Pressure  
Sea Level Pressure 29.84 in    
Wind  
Wind Speed 4 mph ()    
Max Wind Speed 9 mph    
Max Gust Speed -    
Visibility 8.2 miles    
Events Rain    
Averages and records for this station are not official NWS values.
T = Trace of Precipitation, MM = Missing Value Source: Averaged Metar Reports

Daily Weather History Graph

Daily Weather History Graph

Search for Another Location

Airport or City:

Trip Planner

Search our weather history database for the weather conditions in past years. The results will help you decide how hot, cold, wet, or windy it might be!

Date:

Astronomy

Apr. 27, 2014 Rise Set
Actual Time 5:28 AM PHT 5:55 PM PHT
Civil Twilight 5:06 AM PHT 6:17 PM PHT
Nautical Twilight 4:41 AM PHT 6:42 PM PHT
Astronomical Twilight 4:15 AM PHT 7:08 PM PHT
Moon 3:39 AM PHT (4/27) 4:11 PM PHT (4/27)
Length of Visible Light 13h 10m
Length of Day
12h 27m
Waning Crescent, 5% of the Moon is Illuminated
Apr 27
Waning Crescent
Apr 29
New
May 7
First Quarter
May 15
Full
May 21
Last Quarter

Hourly Weather History & Observations

Time (PHT) Temp. Heat Index Dew Point Humidity Pressure Visibility Wind Dir Wind Speed Gust Speed Precip Events Conditions
12:00 AM 78.8 °F - 69.8 °F 74% 29.86 in 6.2 mi NNW 4.6 mph - N/A   Partly Cloudy
1:00 AM 78.8 °F - 71.6 °F 78% 29.86 in 6.2 mi North 4.6 mph - N/A   Partly Cloudy
2:00 AM 81 °F - 77 °F 83% 29.83 in 11 mi SE 2.2 mph - -   Scattered Clouds
2:00 AM 78.8 °F - 73.4 °F 83% 29.83 in 6.2 mi NNW 4.6 mph - N/A   Partly Cloudy
3:00 AM 78.8 °F - 73.4 °F 83% 29.83 in 6.2 mi NNW 2.3 mph - N/A   Partly Cloudy
4:00 AM 78.8 °F - 73.4 °F 83% 29.83 in 6.2 mi North 3.5 mph - N/A   Partly Cloudy
5:00 AM 80 °F - 76 °F 86% 29.83 in 11 mi Calm Calm - -   Scattered Clouds
5:00 AM 78.8 °F - 75.2 °F 89% 29.86 in 6.2 mi Variable 2.3 mph - N/A   Partly Cloudy
6:00 AM 78.8 °F - 75.2 °F 89% 29.86 in 6.2 mi Variable 2.3 mph - N/A   Scattered Clouds
7:00 AM 82.4 °F 90.9 °F 77.0 °F 84% 29.86 in 6.2 mi NW 3.5 mph - N/A   Scattered Clouds
8:00 AM 84 °F - 79 °F 82% 29.89 in 16 mi ESE 2.2 mph - -   Scattered Clouds
8:00 AM 86.0 °F 96.9 °F 77.0 °F 74% 29.89 in 6.2 mi NNE 5.8 mph - N/A   Partly Cloudy
9:00 AM 86.0 °F 96.9 °F 77.0 °F 74% 29.89 in 6.2 mi North 6.9 mph - N/A   Partly Cloudy
10:00 AM 86.0 °F 96.9 °F 77.0 °F 74% 29.89 in 6.2 mi NNE 9.2 mph - N/A   Partly Cloudy
11:00 AM 87 °F - 81 °F 78% 29.87 in 19 mi ESE 4.5 mph - - Rain Light Rain Showers
11:00 AM 87.8 °F 97.6 °F 75.2 °F 66% 29.89 in 6.2 mi NNE 9.2 mph - N/A   Partly Cloudy
12:00 PM 89.6 °F 102.2 °F 77.0 °F 66% 29.86 in 6.2 mi NNE 8.1 mph - N/A   Partly Cloudy
1:00 PM 89.6 °F 99.8 °F 75.2 °F 62% 29.83 in 6.2 mi North 8.1 mph - N/A   Scattered Clouds
2:00 PM 90 °F - 82 °F 71% 29.79 in 19 mi ESE 4.5 mph - -   Partly Cloudy
2:00 PM 89.6 °F 99.8 °F 75.2 °F 62% 29.80 in 6.2 mi NNE 5.8 mph - N/A   Partly Cloudy
3:00 PM 89.6 °F 99.8 °F 75.2 °F 62% 29.77 in 6.2 mi NE 9.2 mph - N/A   Scattered Clouds
4:00 PM 89.6 °F 99.8 °F 75.2 °F 62% 29.77 in 6.2 mi NNE 4.6 mph - N/A   Partly Cloudy
5:00 PM 87 °F - 81 °F 78% 29.76 in 16 mi SE 6.7 mph - -   Scattered Clouds
5:00 PM 87.8 °F 97.6 °F 75.2 °F 66% 29.77 in 6.2 mi NE 6.9 mph - N/A   Partly Cloudy
6:00 PM 84.2 °F 92.3 °F 75.2 °F 74% 29.77 in 6.2 mi NNE 6.9 mph - N/A   Partly Cloudy
7:00 PM 84.2 °F 92.3 °F 75.2 °F 74% 29.80 in 6.2 mi NE 6.9 mph - N/A   Scattered Clouds
8:00 PM 82 °F - 79 °F 87% 29.82 in 12 mi ESE 2.2 mph - -   Scattered Clouds
8:00 PM 82.4 °F 90.9 °F 77.0 °F 84% 29.83 in 6.2 mi NNE 6.9 mph - N/A   Scattered Clouds
9:00 PM 84.2 °F 92.3 °F 75.2 °F 74% 29.83 in 6.2 mi NE 6.9 mph - N/A   Scattered Clouds
10:00 PM 82.4 °F 90.9 °F 77.0 °F 84% 29.86 in 6.2 mi North 6.9 mph - N/A   Scattered Clouds
11:00 PM 81 °F - 78 °F 89% 29.88 in 11 mi SE 4.5 mph - -   Scattered Clouds
11:00 PM 82.4 °F 90.9 °F 77.0 °F 84% 29.86 in 6.2 mi NNW 3.5 mph - N/A   Scattered Clouds